Charlotte, NC

12:29 AM EDT on April 26, 2017 (GMT -0400)
Charlotte-Douglas International

Weather History for KCLT - September, 2002

Change the Weather History Date:

Saturday, September 28, 2002

  Actual Average Record
Temperature  
Mean Temperature 70 °F 66 °F  
Max Temperature 78 °F 77 °F 93 °F (1954)
Min Temperature 64 °F 56 °F 41 °F (1947)
Degree Days  
Heating Degree Days 0 2  
Month to date heating degree days 17  
Since 1 July heating degree days 17  
Cooling Degree Days 6 4  
Month to date cooling degree days 193  
Year to date cooling degree days 1470  
Growing Degree Days 20 (Base 50)    
Moisture  
Dew Point 65 °F    
Average Humidity 81    
Maximum Humidity 100    
Minimum Humidity 66    
Precipitation  
Precipitation 0.01 in 0.12 in 3.38 in (1992)
Month to date precipitation 3.01  
Year to date precipitation 31.61  
Snow  
Snow 0.00 in 0.00 in 0.00 in ()
Month to date snowfall 0.0  
Since 1 July snowfall 0.0  
Since 1 September snowfall 0.0  
Snow Depth -    
Sea Level Pressure  
Sea Level Pressure 29.97 in    
Wind  
Wind Speed 4 mph (NE)    
Max Wind Speed 14 mph    
Max Gust Speed -    
Visibility 10 miles    
Events Rain    
T = Trace of Precipitation, MM = Missing Value Source: NWS Daily Summary

Daily Weather History Graph

Daily Weather History Graph

Search for Another Location

Airport or City:

Trip Planner

Search our weather history database for the weather conditions in past years. The results will help you decide how hot, cold, wet, or windy it might be!

Date:

Astronomy

Sep. 28, 2002 Rise Set
Actual Time 7:16 AM EDT 7:12 PM EDT
Civil Twilight 6:50 AM EDT 7:37 PM EDT
Nautical Twilight 6:21 AM EDT 8:06 PM EDT
Astronomical Twilight 5:51 AM EDT 8:36 PM EDT
Moon 11:32 PM EDT (9/28) 1:43 PM EDT (9/28)
Length of Visible Light 12h 46m
Length of Day
11h 55m
Waning Gibbous, 60% of the Moon is Illuminated
Sep 28
Waning Gibbous
Sep 29
Last Quarter
Oct 6
New
Oct 13
First Quarter
Oct 21
Full

Hourly Weather History & Observations

Time (EDT) Temp. Dew Point Humidity Pressure Visibility Wind Dir Wind Speed Gust Speed Precip Events Conditions
12:51 AM 69.1 °F 68.0 °F 96% 29.80 in 10.0 mi Variable 3.5 mph - N/A   Scattered Clouds
1:51 AM 69.1 °F 68.0 °F 96% 29.81 in 10.0 mi Calm Calm - N/A   Clear
2:51 AM 68.0 °F 66.9 °F 96% 29.82 in 10.0 mi Calm Calm - N/A   Clear
3:26 AM 66.2 °F 66.2 °F 100% 29.85 in 8.0 mi Calm Calm - N/A   Clear
3:51 AM 66.0 °F 66.0 °F 100% 29.84 in 8.0 mi Calm Calm - N/A   Partly Cloudy
4:51 AM 64.9 °F 64.9 °F 100% 29.86 in 7.0 mi Calm Calm - N/A   Mostly Cloudy
5:51 AM 66.9 °F 66.9 °F 100% 29.88 in 7.0 mi Calm Calm - N/A   Overcast
6:51 AM 66.9 °F 66.0 °F 97% 29.91 in 10.0 mi North 5.8 mph - N/A   Overcast
7:51 AM 66.9 °F 64.9 °F 93% 29.94 in 10.0 mi North 6.9 mph - N/A   Mostly Cloudy
8:51 AM 70.0 °F 64.0 °F 81% 29.96 in 10.0 mi North 8.1 mph - N/A   Partly Cloudy
9:51 AM 73.0 °F 63.0 °F 71% 29.99 in 10.0 mi NNE 13.8 mph - N/A   Partly Cloudy
10:51 AM 73.0 °F 62.1 °F 68% 30.01 in 10.0 mi North 8.1 mph - N/A   Mostly Cloudy
11:51 AM 73.9 °F 62.1 °F 66% 30.01 in 10.0 mi NNE 11.5 mph - N/A   Overcast
12:51 PM 73.9 °F 63.0 °F 68% 30.01 in 10.0 mi North 9.2 mph - N/A   Overcast
1:51 PM 75.0 °F 64.9 °F 71% 30.01 in 10.0 mi North 8.1 mph - N/A   Overcast
2:51 PM 77.0 °F 66.0 °F 69% 30.00 in 10.0 mi NNE 9.2 mph - N/A   Overcast
3:51 PM 77.0 °F 64.9 °F 66% 30.00 in 10.0 mi ENE 8.1 mph - N/A   Overcast
4:51 PM 75.9 °F 64.9 °F 69% 30.01 in 10.0 mi NNE 6.9 mph - N/A   Overcast
5:51 PM 75.0 °F 64.9 °F 71% 30.02 in 10.0 mi NE 4.6 mph - N/A   Overcast
6:51 PM 75.0 °F 64.9 °F 71% 30.04 in 10.0 mi ENE 5.8 mph - N/A   Overcast
7:51 PM 73.0 °F 64.0 °F 73% 30.05 in 10.0 mi NNE 6.9 mph - N/A   Overcast
8:51 PM 73.0 °F 64.9 °F 76% 30.06 in 10.0 mi ENE 5.8 mph - N/A   Overcast
9:51 PM 72.0 °F 64.9 °F 78% 30.08 in 10.0 mi ENE 5.8 mph - N/A   Overcast
10:51 PM 72.0 °F 64.9 °F 78% 30.09 in 10.0 mi ENE 5.8 mph - 0.00 in Rain Light Rain
11:51 PM 71.1 °F 63.0 °F 75% 30.10 in 10.0 mi ENE 6.9 mph - 0.00 in   Overcast